Content
SEND FEEDBACK

Daily
Averages
Monthly
Summary
Philippines

ANGELES CITY, PHILIPPINES


Home > Asia > Philippines
Elevation: 490 feet     Latitude: 15 11N     Longitude: 120 33E

WEATHER
 
SELECT A DAY
Number of Records: 97,513;   Date Range: 2/13/97 - 12/17/14
 
SHARE

PRINT THIS DATA

[ ← Previous Day ]
WEATHER ALMANAC - MAY 3, 2013
[ Next Day → ]
[ °C ]   °F
Weather ElementAverageHighLow
Temperature83.5 °F93.2 °F (1:00 pm)77 °F (2:00 am)
Dewpoint71.9 °F77 °F (8:00 am)66.2 °F (12:00 pm)
Humidity69.8 %89 % (5:00 am)43 % (12:00 pm)
Barometer29.83 in29.89 in (10:00 pm)29.77 in (2:00 pm)
Wind Speed6.8 mph11.5 mph (1:00 pm)
Weather ElementAverage
Visibility5.9 mi
Wind DirectionSE (137.7 °)

Weather ElementTotal
Precipitation---
Cooling Degree Days20.1 (Base 65)
Growing Degree Days35.1 (Base 50)
Averaged from 22 records on May 3, 2013
WEATHER CONDITIONS BREAKOUT
WIND DIRECTION BREAKOUT
WEATHER BY HOUR - MAY 3, 2013
[ °C ]   °F
Local TimeTemperatureDewpointHumidityBarometerVisibilityWind DirectionWind SpeedGust SpeedPrecipitationEventsConditions
1:00 AM78.8 °F71.6 °F78 %29.80 in6.2 miWest (270°)5.8 mphMostly Cloudy
2:00 AM77.0 °F71.6 °F83 %29.80 in6.2 miWest (270°)5.8 mphMostly Cloudy
3:00 AM78.8 °F73.4 °F83 %29.80 in6.2 miVariable2.3 mphMostly Cloudy
4:00 AM77.0 °F71.6 °F83 %29.80 in6.2 miWSW (250°)3.5 mphMostly Cloudy
5:00 AM77.0 °F73.4 °F89 %29.83 in6.2 miWNW (290°)2.3 mphMostly Cloudy
6:00 AM77.0 °F73.4 °F89 %29.83 in5.0 miSW (230°)4.6 mphMostly Cloudy
7:00 AM80.6 °F75.2 °F84 %29.83 in4.3 miSSW (210°)2.3 mphMostly Cloudy
8:00 AM84.2 °F77.0 °F79 %29.86 in5.0 miSouth (190°)5.8 mphMostly Cloudy
9:00 AM86.0 °F75.2 °F70 %29.86 inNorthMostly Cloudy
10:00 AM87.8 °F73.4 °F62 %29.86 inNorthMostly Cloudy
11:00 AM91.4 °F71.6 °F52 %29.86 inNorthMostly Cloudy
12:00 PM91.4 °F66.2 °F43 %29.83 in6.2 miSSE (150°)10.4 mphMostly Cloudy
1:00 PM93.2 °F71.6 °F49 %29.80 in6.2 miSSE (150°)11.5 mphMostly Cloudy
2:00 PM93.2 °F68.0 °F44 %29.77 in6.2 miSSE (160°)10.4 mphMostly Cloudy
4:00 PM91.4 °F68.0 °F46 %29.77 in6.2 miSouth (190°)10.4 mphMostly Cloudy
5:00 PM86.0 °F71.6 °F62 %29.77 in6.2 miNNW (330°)11.5 mphMostly Cloudy
6:00 PM86.0 °F71.6 °F62 %29.80 in6.2 miWest (280°)6.9 mphMostly Cloudy
7:00 PM80.6 °F71.6 °F74 %29.86 in6.2 miENE (60°)8.1 mphMostly Cloudy
8:00 PM80.6 °F71.6 °F74 %29.86 inNorthMostly Cloudy
9:00 PM78.8 °F71.6 °F78 %29.86 in6.2 miNorthMostly Cloudy
10:00 PM78.8 °F71.6 °F78 %29.89 inNorthMostly Cloudy
11:00 PM80.6 °F71.6 °F74 %29.89 inNorthMostly Cloudy
Hourly data recorded from RPLC, located miles away from Angeles City, Philippines







STORIES FROM OUR PARTNERS